AAL2140 KDFW-KIAH

Flight info

Callsign AAL2140
Flight time 0h 46m
Altitude 29000
Route DARTZ9 TORNN GUSHR3
Aircraft B738/M-SDE2E3FGHIRWXY/LB1

Departure

Time 2026-05-07 00:09
Airport Dallas Fort Worth International Airport (KDFW)

Arrival

Time 2026-05-07 00:55
Airport George Bush Intercontinental Airport (KIAH)
Time Latitude Longitude Altitude Speed Heading
2026-05-06 23:36 32.89568 -97.03554 629 ft 0 kts 311°
2026-05-06 23:52 32.89560 -97.03545 614 ft 4 kts 309°
2026-05-06 23:53 32.89545 -97.03518 629 ft 4 kts 295°
2026-05-06 23:53 32.89538 -97.03490 622 ft 4 kts 256°
2026-05-06 23:53 32.89544 -97.03476 629 ft 0 kts 218°
2026-05-06 23:55 32.89539 -97.03482 620 ft 2 kts 225°
2026-05-06 23:55 32.89524 -97.03503 626 ft 0 kts 233°
2026-05-06 23:56 32.89517 -97.03515 617 ft 3 kts 236°
2026-05-06 23:56 32.89508 -97.03529 617 ft 2 kts 231°
2026-05-06 23:56 32.89472 -97.03564 617 ft 11 kts 206°
2026-05-06 23:56 32.89420 -97.03528 625 ft 13 kts 98°
2026-05-06 23:57 32.89421 -97.03404 622 ft 11 kts 88°
2026-05-06 23:57 32.89428 -97.03278 615 ft 19 kts 85°
2026-05-06 23:57 32.89420 -97.03247 620 ft 5 kts 142°
2026-05-06 23:57 32.89417 -97.03227 615 ft 0 kts 75°
2026-05-06 23:58 32.89417 -97.03216 617 ft 1 kts 90°
2026-05-06 23:58 32.89406 -97.03203 625 ft 3 kts 154°
2026-05-06 23:58 32.89358 -97.03199 623 ft 9 kts 181°
2026-05-06 23:58 32.89283 -97.03200 621 ft 13 kts 179°
2026-05-06 23:59 32.89176 -97.03199 619 ft 16 kts 180°
2026-05-06 23:59 32.89067 -97.03197 621 ft 15 kts 180°
2026-05-06 23:59 32.88963 -97.03199 619 ft 15 kts 180°
2026-05-06 23:59 32.88869 -97.03199 622 ft 13 kts 179°
2026-05-07 00:00 32.88779 -97.03197 621 ft 13 kts 178°
2026-05-07 00:00 32.88692 -97.03199 625 ft 12 kts 182°
2026-05-07 00:00 32.88616 -97.03227 622 ft 12 kts 234°
2026-05-07 00:00 32.88598 -97.03321 615 ft 12 kts 268°
2026-05-07 00:01 32.88597 -97.03417 614 ft 11 kts 269°
2026-05-07 00:01 32.88598 -97.03509 614 ft 11 kts 272°
2026-05-07 00:01 32.88599 -97.03599 614 ft 11 kts 271°
2026-05-07 00:01 32.88600 -97.03668 614 ft 7 kts 270°
2026-05-07 00:02 32.88600 -97.03729 614 ft 7 kts 270°
2026-05-07 00:02 32.88599 -97.03787 615 ft 7 kts 269°
2026-05-07 00:02 32.88598 -97.03845 615 ft 7 kts 269°
2026-05-07 00:02 32.88597 -97.03936 615 ft 18 kts 270°
2026-05-07 00:03 32.88599 -97.04101 615 ft 19 kts 272°
2026-05-07 00:03 32.88602 -97.04260 615 ft 19 kts 270°
2026-05-07 00:03 32.88601 -97.04411 615 ft 18 kts 270°
2026-05-07 00:03 32.88602 -97.04558 615 ft 17 kts 270°
2026-05-07 00:04 32.88602 -97.04699 615 ft 17 kts 270°
2026-05-07 00:04 32.88602 -97.04798 615 ft 10 kts 270°
2026-05-07 00:04 32.88597 -97.04876 615 ft 10 kts 236°
2026-05-07 00:04 32.88533 -97.04891 621 ft 9 kts 180°
2026-05-07 00:05 32.88469 -97.04891 619 ft 9 kts 180°
2026-05-07 00:05 32.88406 -97.04892 620 ft 9 kts 181°
2026-05-07 00:05 32.88344 -97.04892 623 ft 9 kts 180°
2026-05-07 00:05 32.88285 -97.04892 620 ft 8 kts 180°
2026-05-07 00:06 32.88222 -97.04893 618 ft 11 kts 181°
2026-05-07 00:06 32.88128 -97.04894 621 ft 17 kts 181°
2026-05-07 00:06 32.87997 -97.04894 619 ft 17 kts 180°
2026-05-07 00:06 32.87905 -97.04924 618 ft 11 kts 256°
2026-05-07 00:07 32.87904 -97.04963 618 ft 0 kts 274°
2026-05-07 00:07 32.87904 -97.04964 619 ft 3 kts 274°
2026-05-07 00:07 32.87907 -97.05055 618 ft 10 kts 275°
2026-05-07 00:07 32.87940 -97.05091 615 ft 0 kts 355°
2026-05-07 00:08 32.87945 -97.05090 615 ft 3 kts
2026-05-07 00:08 32.88177 -97.05087 628 ft 75 kts
2026-05-07 00:08 32.88967 -97.05082 621 ft 149 kts
2026-05-07 00:08 32.90157 -97.05080 991 ft 189 kts
2026-05-07 00:09 32.91490 -97.05119 1993 ft 187 kts
2026-05-07 00:09 32.92815 -97.05166 2794 ft 201 kts 360°
2026-05-07 00:09 32.94315 -97.05268 3019 ft 231 kts 348°
2026-05-07 00:09 32.95871 -97.05904 3708 ft 241 kts 341°
2026-05-07 00:10 32.97454 -97.06582 4600 ft 243 kts 340°
2026-05-07 00:10 32.99051 -97.07333 5341 ft 252 kts 327°
2026-05-07 00:10 33.00273 -97.08784 6302 ft 249 kts 299°
2026-05-07 00:10 33.00934 -97.10665 7170 ft 247 kts 279°
2026-05-07 00:11 33.00956 -97.12712 7990 ft 248 kts 265°
2026-05-07 00:11 33.00832 -97.14767 8847 ft 249 kts 264°
2026-05-07 00:11 33.00702 -97.16833 9599 ft 252 kts 263°
2026-05-07 00:11 33.00510 -97.18943 9967 ft 261 kts 261°
2026-05-07 00:12 33.00288 -97.21099 10008 ft 263 kts 261°
2026-05-07 00:12 32.99945 -97.23235 10012 ft 263 kts 247°
2026-05-07 00:12 32.99017 -97.25105 10025 ft 264 kts 232°
2026-05-07 00:12 32.97743 -97.26683 10050 ft 266 kts 226°
2026-05-07 00:13 32.96317 -97.28203 10175 ft 288 kts 218°
2026-05-07 00:13 32.94387 -97.29199 10348 ft 321 kts 196°
2026-05-07 00:13 32.92055 -97.29349 10511 ft 350 kts 182°
2026-05-07 00:13 32.89551 -97.29180 10703 ft 369 kts 181°
2026-05-07 00:14 32.86991 -97.28979 11144 ft 377 kts 181°
2026-05-07 00:14 32.84360 -97.28803 11757 ft 380 kts 182°
2026-05-07 00:14 32.81682 -97.28649 12410 ft 382 kts 183°
2026-05-07 00:14 32.79051 -97.28366 12997 ft 392 kts 173°
2026-05-07 00:15 32.76484 -97.27083 13556 ft 412 kts 153°
2026-05-07 00:15 32.74191 -97.24969 14107 ft 420 kts 147°
2026-05-07 00:15 32.71928 -97.22749 14610 ft 424 kts 147°
2026-05-07 00:15 32.69652 -97.20507 15121 ft 427 kts 147°
2026-05-07 00:16 32.67357 -97.18257 15615 ft 429 kts 148°
2026-05-07 00:16 32.65046 -97.16008 16143 ft 431 kts 148°
2026-05-07 00:16 32.62715 -97.13754 16640 ft 433 kts 149°
2026-05-07 00:16 32.60372 -97.11499 17154 ft 435 kts 149°
2026-05-07 00:17 32.58014 -97.09235 17658 ft 437 kts 149°
2026-05-07 00:17 32.55646 -97.06964 18157 ft 439 kts 150°
2026-05-07 00:17 32.53263 -97.04682 18565 ft 442 kts 150°
2026-05-07 00:17 32.50855 -97.02379 18955 ft 446 kts 150°
2026-05-07 00:18 32.48432 -97.00061 19324 ft 449 kts 150°
2026-05-07 00:18 32.45992 -96.97728 19678 ft 453 kts 150°
2026-05-07 00:18 32.43534 -96.95378 20035 ft 456 kts 150°
2026-05-07 00:18 32.41060 -96.93013 20424 ft 457 kts 150°
2026-05-07 00:19 32.38584 -96.90648 20832 ft 459 kts 150°
2026-05-07 00:19 32.36086 -96.88264 21167 ft 463 kts 150°
2026-05-07 00:19 32.33568 -96.85864 21466 ft 467 kts 150°
2026-05-07 00:19 32.31032 -96.83449 21801 ft 469 kts 150°
2026-05-07 00:20 32.28439 -96.81141 22157 ft 462 kts 158°
2026-05-07 00:20 32.25551 -96.79703 22461 ft 445 kts 172°
2026-05-07 00:20 32.22577 -96.78652 22812 ft 447 kts 172°
2026-05-07 00:20 32.19595 -96.77565 23102 ft 451 kts 172°
2026-05-07 00:21 32.16594 -96.76437 23353 ft 454 kts 171°
2026-05-07 00:21 32.13574 -96.75278 23585 ft 458 kts 171°
2026-05-07 00:21 32.10533 -96.74096 23837 ft 460 kts 171°
2026-05-07 00:21 32.07495 -96.72908 24130 ft 461 kts 171°
2026-05-07 00:22 32.04448 -96.71717 24416 ft 462 kts 171°
2026-05-07 00:22 32.01391 -96.70526 24678 ft 463 kts 171°
2026-05-07 00:22 31.98335 -96.69338 24955 ft 462 kts 171°
2026-05-07 00:22 31.95272 -96.68149 24980 ft 466 kts 171°
2026-05-07 00:23 31.92225 -96.66970 24992 ft 469 kts 171°
2026-05-07 00:23 31.89117 -96.65767 24946 ft 469 kts 171°
2026-05-07 00:23 31.86023 -96.64568 24981 ft 467 kts 171°
2026-05-07 00:23 31.82943 -96.63379 24983 ft 466 kts 171°
2026-05-07 00:24 31.79860 -96.62193 24981 ft 465 kts 171°
2026-05-07 00:24 31.76787 -96.61011 24973 ft 465 kts 171°
2026-05-07 00:24 31.73715 -96.59830 24977 ft 465 kts 171°
2026-05-07 00:24 31.70641 -96.58650 24978 ft 465 kts 171°
2026-05-07 00:25 31.67568 -96.57470 24962 ft 465 kts 171°
2026-05-07 00:25 31.64490 -96.56289 24958 ft 465 kts 171°
2026-05-07 00:25 31.61414 -96.55108 24945 ft 465 kts 171°
2026-05-07 00:25 31.58345 -96.53931 24946 ft 464 kts 171°
2026-05-07 00:26 31.55278 -96.52755 24938 ft 463 kts 171°
2026-05-07 00:26 31.52219 -96.51577 24940 ft 463 kts 170°
2026-05-07 00:26 31.49219 -96.50109 24941 ft 472 kts 163°
2026-05-07 00:26 31.46302 -96.48315 24937 ft 475 kts 160°
2026-05-07 00:27 31.43415 -96.46418 24928 ft 475 kts 160°
2026-05-07 00:27 31.40549 -96.44537 24702 ft 471 kts 160°
2026-05-07 00:27 31.37733 -96.42732 24652 ft 451 kts 161°
2026-05-07 00:27 31.35013 -96.41032 24443 ft 434 kts 162°
2026-05-07 00:28 31.32384 -96.39421 24284 ft 420 kts 162°
2026-05-07 00:28 31.29833 -96.37866 24118 ft 407 kts 162°
2026-05-07 00:28 31.27360 -96.36356 23959 ft 396 kts 162°
2026-05-07 00:28 31.24938 -96.34880 23591 ft 391 kts 163°
2026-05-07 00:29 31.22537 -96.33421 23154 ft 388 kts 162°
2026-05-07 00:29 31.20150 -96.31971 22713 ft 385 kts 162°
2026-05-07 00:30 31.13076 -96.27671 21426 ft 379 kts 162°
2026-05-07 00:30 31.10738 -96.26251 21036 ft 378 kts 162°
2026-05-07 00:30 31.08408 -96.24836 20613 ft 377 kts 162°
2026-05-07 00:30 31.06088 -96.23428 20226 ft 375 kts 161°
2026-05-07 00:31 31.03774 -96.22023 19807 ft 374 kts 161°
2026-05-07 00:31 31.01469 -96.20625 19416 ft 373 kts 161°
2026-05-07 00:31 30.99166 -96.19214 19013 ft 374 kts 160°
2026-05-07 00:31 30.96881 -96.17750 18609 ft 375 kts 159°
2026-05-07 00:32 30.94602 -96.16267 18209 ft 376 kts 159°
2026-05-07 00:32 30.92318 -96.14779 17780 ft 376 kts 159°
2026-05-07 00:32 30.90036 -96.13301 17360 ft 375 kts 159°
2026-05-07 00:32 30.87789 -96.11853 16958 ft 373 kts 159°
2026-05-07 00:33 30.85535 -96.10401 16595 ft 368 kts 159°
2026-05-07 00:33 30.83314 -96.08971 16262 ft 362 kts 159°
2026-05-07 00:33 30.81117 -96.07561 15834 ft 359 kts 159°
2026-05-07 00:33 30.78942 -96.06164 15468 ft 356 kts 159°
2026-05-07 00:34 30.76793 -96.04785 15101 ft 353 kts 159°
2026-05-07 00:34 30.74651 -96.03412 14727 ft 351 kts 159°
2026-05-07 00:34 30.72528 -96.02051 14351 ft 349 kts 158°
2026-05-07 00:34 30.70512 -96.00759 13988 ft 347 kts 158°
2026-05-07 00:35 30.68396 -95.99404 13592 ft 347 kts 158°
2026-05-07 00:35 30.66371 -95.98109 13192 ft 346 kts 158°
2026-05-07 00:35 30.64373 -95.96831 12810 ft 345 kts 158°
2026-05-07 00:35 30.62378 -95.95554 12438 ft 343 kts 157°
2026-05-07 00:36 30.60290 -95.94219 12037 ft 342 kts 157°
2026-05-07 00:36 30.58206 -95.92887 11696 ft 341 kts 156°
2026-05-07 00:36 30.56130 -95.91561 11334 ft 340 kts 156°
2026-05-07 00:36 30.54064 -95.90240 10967 ft 338 kts 155°
2026-05-07 00:37 30.52012 -95.88931 10625 ft 335 kts 155°
2026-05-07 00:37 30.49977 -95.87619 10254 ft 334 kts 152°
2026-05-07 00:37 30.48235 -95.85824 9877 ft 340 kts 129°
2026-05-07 00:37 30.47375 -95.84334 9873 ft 332 kts 124°
2026-05-07 00:38 30.46222 -95.82077 9854 ft 319 kts 122°
2026-05-07 00:38 30.45143 -95.79890 9821 ft 307 kts 122°
2026-05-07 00:38 30.44105 -95.77766 9776 ft 299 kts 122°
2026-05-07 00:38 30.43075 -95.75697 9544 ft 294 kts 127°
2026-05-07 00:39 30.41630 -95.74082 9205 ft 287 kts 154°
2026-05-07 00:39 30.39778 -95.73412 8926 ft 276 kts 181°
2026-05-07 00:39 30.37904 -95.73654 8647 ft 270 kts 195°
2026-05-07 00:39 30.36079 -95.74138 8351 ft 268 kts 197°
2026-05-07 00:40 30.34270 -95.74651 8073 ft 267 kts 197°
2026-05-07 00:40 30.32468 -95.75172 7789 ft 266 kts 197°
2026-05-07 00:40 30.30648 -95.75523 7526 ft 269 kts 178°
2026-05-07 00:40 30.28907 -95.74746 7289 ft 276 kts 142°
2026-05-07 00:41 30.27709 -95.73001 7089 ft 280 kts 123°
2026-05-07 00:41 30.26732 -95.71035 6858 ft 283 kts 122°
2026-05-07 00:41 30.25794 -95.69033 6638 ft 282 kts 121°
2026-05-07 00:41 30.24928 -95.67133 6521 ft 259 kts 120°
2026-05-07 00:42 30.24119 -95.65373 6386 ft 237 kts 121°
2026-05-07 00:42 30.23367 -95.63761 6236 ft 219 kts 122°
2026-05-07 00:42 30.22652 -95.62250 6038 ft 211 kts 121°
2026-05-07 00:42 30.21939 -95.60791 5806 ft 207 kts 123°
2026-05-07 00:43 30.21279 -95.59314 5564 ft 207 kts 121°
2026-05-07 00:43 30.20576 -95.57868 5342 ft 207 kts 124°
2026-05-07 00:43 30.19845 -95.56427 5106 ft 208 kts 128°
2026-05-07 00:43 30.19057 -95.55031 4836 ft 209 kts 117°
2026-05-07 00:44 30.18513 -95.53468 4591 ft 210 kts 111°
2026-05-07 00:44 30.18017 -95.51879 4358 ft 211 kts 112°
2026-05-07 00:44 30.17511 -95.50286 4130 ft 213 kts 112°
2026-05-07 00:44 30.17007 -95.48690 4045 ft 213 kts 112°
2026-05-07 00:45 30.16492 -95.47078 4032 ft 214 kts 111°
2026-05-07 00:45 30.15977 -95.45490 4013 ft 210 kts 112°
2026-05-07 00:45 30.15468 -95.43911 4024 ft 210 kts 111°
2026-05-07 00:45 30.14972 -95.42342 3955 ft 206 kts 111°
2026-05-07 00:46 30.14508 -95.40774 3854 ft 208 kts 107°
2026-05-07 00:46 30.14116 -95.39157 3790 ft 210 kts 107°
2026-05-07 00:46 30.13720 -95.37532 3662 ft 210 kts 107°
2026-05-07 00:46 30.13327 -95.35912 3580 ft 209 kts 107°
2026-05-07 00:47 30.12932 -95.34296 3448 ft 209 kts 107°
2026-05-07 00:47 30.12536 -95.32686 3356 ft 208 kts 107°
2026-05-07 00:47 30.12143 -95.31081 3253 ft 208 kts 107°
2026-05-07 00:47 30.11758 -95.29474 3141 ft 207 kts 107°
2026-05-07 00:48 30.11370 -95.27879 3016 ft 206 kts 106°
2026-05-07 00:48 30.10976 -95.26290 2903 ft 206 kts 107°
2026-05-07 00:48 30.10578 -95.24701 2795 ft 206 kts 106°
2026-05-07 00:48 30.10174 -95.23121 2677 ft 205 kts 107°
2026-05-07 00:49 30.09762 -95.21532 2579 ft 208 kts 106°
2026-05-07 00:49 30.09338 -95.19944 2525 ft 207 kts 107°
2026-05-07 00:49 30.08918 -95.18363 2497 ft 205 kts 109°
2026-05-07 00:49 30.08165 -95.17010 2501 ft 202 kts 144°
2026-05-07 00:50 30.06872 -95.16449 2511 ft 203 kts 180°
2026-05-07 00:50 30.05470 -95.16500 2517 ft 202 kts 184°
2026-05-07 00:50 30.04061 -95.16556 2527 ft 202 kts 184°
2026-05-07 00:50 30.02682 -95.16600 2515 ft 191 kts 184°
2026-05-07 00:51 30.01483 -95.16986 2497 ft 179 kts 223°
2026-05-07 00:51 30.00934 -95.18197 2524 ft 172 kts 260°
2026-05-07 00:51 30.00796 -95.19562 2406 ft 172 kts 266°
2026-05-07 00:51 30.00750 -95.20929 2196 ft 169 kts 269°
2026-05-07 00:52 30.00735 -95.22256 1982 ft 167 kts 270°
2026-05-07 00:52 30.00729 -95.23593 1761 ft 167 kts 270°
2026-05-07 00:52 30.00725 -95.24935 1528 ft 167 kts 270°
2026-05-07 00:52 30.00723 -95.26292 1305 ft 168 kts 271°
2026-05-07 00:53 30.00721 -95.27641 1082 ft 168 kts 270°
2026-05-07 00:53 30.00719 -95.28951 864 ft 162 kts 271°
2026-05-07 00:53 30.00717 -95.30218 670 ft 156 kts 270°
2026-05-07 00:53 30.00716 -95.31462 460 ft 155 kts 270°
2026-05-07 00:54 30.00715 -95.32713 253 ft 157 kts 269°
2026-05-07 00:54 30.00712 -95.33975 111 ft 155 kts 269°
2026-05-07 00:54 30.00714 -95.35178 96 ft 131 kts 268°
2026-05-07 00:54 30.00722 -95.35917 92 ft 52 kts 266°
2026-05-07 00:55 30.00608 -95.36013 94 ft 13 kts 152°
2026-05-07 00:55 30.00567 -95.35955 93 ft 7 kts 125°
2026-05-07 00:55 30.00532 -95.35903 93 ft 10 kts 132°
2026-05-07 00:55 30.00495 -95.35872 93 ft 6 kts 160°
2026-05-07 00:56 30.00450 -95.35867 95 ft 9 kts 177°
2026-05-07 00:56 30.00383 -95.35830 93 ft 13 kts 134°
2026-05-07 00:56 30.00310 -95.35738 94 ft 18 kts 133°
2026-05-07 00:56 30.00210 -95.35629 94 ft 22 kts 139°
2026-05-07 00:57 30.00145 -95.35564 95 ft 11 kts 140°
2026-05-07 00:57 30.00076 -95.35513 95 ft 13 kts 154°
2026-05-07 00:57 30.00001 -95.35491 96 ft 11 kts 174°
2026-05-07 00:57 29.99919 -95.35487 94 ft 12 kts 179°
2026-05-07 00:58 29.99829 -95.35486 94 ft 14 kts 179°
2026-05-07 00:58 29.99730 -95.35484 95 ft 15 kts 179°
2026-05-07 00:58 29.99623 -95.35481 95 ft 16 kts 178°
2026-05-07 00:58 29.99564 -95.35479 94 ft 9 kts 177°
2026-05-07 00:59 29.99432 -95.35481 95 ft 9 kts 182°
2026-05-07 00:59 29.99368 -95.35484 93 ft 9 kts 181°
2026-05-07 00:59 29.99284 -95.35483 93 ft 15 kts 179°
2026-05-07 01:00 29.99176 -95.35481 93 ft 15 kts 180°
2026-05-07 01:00 29.99056 -95.35479 95 ft 19 kts 182°
2026-05-07 01:00 29.98907 -95.35487 97 ft 24 kts 179°
2026-05-07 01:00 29.98782 -95.35447 99 ft 20 kts 153°
2026-05-07 01:01 29.98650 -95.35355 101 ft 21 kts 155°
2026-05-07 01:01 29.98502 -95.35288 99 ft 19 kts 150°
2026-05-07 01:01 29.98389 -95.35181 97 ft 24 kts 115°
2026-05-07 01:01 29.98393 -95.35069 98 ft 1 kts 46°
2026-05-07 01:02 29.98404 -95.35067 98 ft 0 kts
2026-05-07 01:02 29.98407 -95.35071 98 ft 2 kts 319°
2026-05-07 01:02 29.98415 -95.35087 98 ft 2 kts 298°
2026-05-07 01:03 29.98430 -95.35118 98 ft 7 kts 297°
2026-05-07 01:03 29.98445 -95.35138 99 ft 1 kts 339°
2026-05-07 01:03 29.98457 -95.35139 99 ft 4 kts
2026-05-07 01:03 29.98483 -95.35130 100 ft 5 kts 19°
2026-05-07 01:04 29.98503 -95.35129 98 ft 1 kts
2026-05-07 01:04 29.98515 -95.35129 98 ft 1 kts
2026-05-07 01:04 29.98524 -95.35129 98 ft 1 kts